Date String (YYYY-MM-DD hh:mm:ss) UTC,Instrument flags,absolute air pressure of the measurement (hPa),sample flow rate (lpm),inlet stack bypass flow (lpm),air temperature of the measurement (°C),ambient temperature measured by the external sensor (°C),aerosol sample conditioner tube jacket temperature (°C),OPC LED temperature (°C),internal box temperature (°C),relative humidity of the measurement (%),span deviation,mass concentration of particles derived from Lorenz-Mie calculation of OPC scattering (μg/m³),mass concentration of particles derived from Lorenz-Mie calculation of OPC scattering (μg/m³),mass concentration of particles derived from Lorenz-Mie calculation of OPC scattering (μg/m³)
DateTimeUTC,F1_M11,P_M11,Q1_M11,Q2_M11,T1_M11,T2_M11,T3_M11,T4_M11,T5_M11,U1_M11,ZSPAN_M11,X0_M11,X2_M11,X1_M11
2024-06-03 02:00:00,SystemResetWarning,0824.0,5.01,000.00,029.6,028.8,000.0,037.8,031.3,016.9,0000.0,0014.05,0004.27,0003.04
2024-06-03 02:01:00,SystemResetWarning,0824.0,5.01,000.00,029.6,028.9,000.0,037.9,031.4,016.9,0000.0,0014.14,0004.30,0003.04
2024-06-03 02:02:00,SystemResetWarning,0824.0,5.00,000.00,029.7,029.0,000.0,037.9,031.4,017.1,0000.0,0013.92,0004.32,0003.05
2024-06-03 02:03:00,SystemResetWarning,0823.9,4.99,000.00,029.7,029.1,000.0,037.9,031.5,017.3,0000.0,0013.32,0004.28,0003.04
2024-06-03 02:04:00,SystemResetWarning,0823.9,5.00,000.00,029.8,029.2,000.0,037.9,031.6,017.9,0000.0,0013.70,0004.26,0003.03
2024-06-03 02:05:00,SystemResetWarning,0824.0,5.00,000.00,029.8,029.3,000.0,038.0,031.6,017.9,0000.0,0014.37,0004.26,0003.04
2024-06-03 02:06:00,SystemResetWarning,0824.0,4.99,000.00,029.9,029.4,000.0,038.0,031.7,019.3,0000.0,0014.16,0004.23,0003.02
2024-06-03 02:07:00,SystemResetWarning,0824.0,5.00,000.00,029.9,029.4,000.0,038.0,031.7,019.3,0000.0,0014.42,0004.27,0003.02
2024-06-03 02:08:00,SystemResetWarning,0823.9,5.00,000.00,030.0,029.5,000.0,038.1,031.8,018.7,0000.0,0014.47,0004.26,0003.01
2024-06-03 02:09:00,SystemResetWarning,0823.9,5.01,000.00,030.0,029.6,000.0,038.1,031.8,017.7,0000.0,0014.35,0004.26,0003.01
2024-06-03 02:10:00,SystemResetWarning,0823.9,5.01,000.00,030.0,029.6,000.0,038.2,031.9,017.5,0000.0,0015.38,0004.26,0003.01
2024-06-03 02:11:00,SystemResetWarning,0823.9,4.99,000.00,030.1,029.7,000.0,038.2,031.9,018.4,0000.0,0016.19,0004.24,0002.99
2024-06-03 02:12:00,SystemResetWarning,0823.9,4.99,000.00,030.1,029.7,000.0,038.3,032.0,018.4,0000.0,0016.24,0004.23,0003.00
2024-06-03 02:13:00,SystemResetWarning,0824.0,4.99,000.00,030.2,029.7,000.0,038.3,032.0,018.5,0000.0,0017.44,0004.22,0002.98
2024-06-03 02:14:00,SystemResetWarning,0823.8,5.00,000.00,030.2,029.8,000.0,038.3,032.0,018.7,0000.0,0018.25,0004.17,0002.96
2024-06-03 02:15:00,SystemResetWarning,0823.8,5.00,000.00,030.3,029.8,000.0,038.4,032.0,019.0,0000.0,0017.82,0004.18,0002.97
2024-06-03 02:16:00,SystemResetWarning,0823.8,4.99,000.00,030.3,029.8,000.0,038.4,032.1,019.4,0000.0,0016.89,0004.19,0002.98
2024-06-03 02:17:00,SystemResetWarning,0823.8,5.00,000.00,030.3,029.9,000.0,038.4,032.1,019.5,0000.0,0018.33,0004.23,0002.98
2024-06-03 02:18:00,SystemResetWarning,0823.9,5.01,000.00,030.3,029.4,000.0,038.5,031.8,019.3,0000.0,0020.00,0004.23,0002.97
2024-06-03 02:19:00,SystemResetWarning,0823.9,4.99,000.00,030.0,026.9,000.0,038.5,030.7,019.4,0000.0,0021.34,0004.25,0002.99
2024-06-03 02:20:00,SystemResetWarning,0823.8,5.01,000.00,029.6,026.4,000.0,038.5,030.3,019.5,0000.0,0021.37,0004.33,0003.01
2024-06-03 02:21:00,SystemResetWarning,0823.8,5.01,000.00,029.5,026.7,000.0,038.4,030.4,019.2,0000.0,0020.53,0004.37,0003.03
2024-06-03 02:22:00,SystemResetWarning,0823.8,4.99,000.00,029.5,027.1,000.0,038.2,030.7,018.9,0000.0,0020.70,0004.42,0003.05
2024-06-03 02:23:00,SystemResetWarning,0823.8,5.00,000.00,029.5,027.5,000.0,038.2,030.9,018.1,0000.0,0021.20,0004.47,0003.05
2024-06-03 02:24:00,SystemResetWarning,0823.8,5.01,000.00,029.5,027.9,000.0,038.1,031.1,017.4,0000.0,0019.99,0004.48,0003.07
2024-06-03 02:25:00,SystemResetWarning,0823.8,5.01,000.00,029.5,028.2,000.0,038.1,031.2,017.1,0000.0,0019.37,0004.49,0003.09
2024-06-03 02:26:00,SystemResetWarning,0823.8,5.00,000.00,029.6,028.4,000.0,038.0,031.3,017.7,0000.0,0020.21,0004.52,0003.09
2024-06-03 02:27:00,SystemResetWarning,0823.8,5.00,000.00,029.7,028.7,000.0,038.0,031.4,017.2,0000.0,0020.27,0004.53,0003.08
2024-06-03 02:28:00,SystemResetWarning,0823.8,4.99,000.00,029.7,028.8,000.0,038.0,031.4,016.5,0000.0,0019.37,0004.57,0003.08
2024-06-03 02:29:00,SystemResetWarning,0823.7,5.00,000.00,029.8,029.0,000.0,038.1,031.5,016.9,0000.0,0017.51,0004.54,0003.08
2024-06-03 02:30:00,SystemResetWarning,0823.6,5.00,000.00,029.8,029.1,000.0,038.1,031.6,016.8,0000.0,0016.32,0004.47,0003.06
2024-06-03 02:31:00,SystemResetWarning,0823.4,5.00,000.00,029.9,029.2,000.0,038.1,031.7,017.1,0000.0,0017.37,0004.40,0003.05
2024-06-03 02:32:00,SystemResetWarning,0823.4,5.00,000.00,029.9,029.3,000.0,038.1,031.7,017.2,0000.0,0019.23,0004.35,0003.05
2024-06-03 02:33:00,SystemResetWarning,0823.4,5.00,000.00,030.0,029.4,000.0,038.1,031.8,016.6,0000.0,0019.32,0004.31,0003.05
2024-06-03 02:34:00,SystemResetWarning,0823.4,5.00,000.00,030.0,029.5,000.0,038.2,031.8,016.1,0000.0,0018.02,0004.21,0003.05
2024-06-03 02:35:00,SystemResetWarning,0823.5,5.00,000.00,030.1,029.5,000.0,038.2,031.9,015.7,0000.0,0018.44,0004.20,0003.05
2024-06-03 02:36:00,SystemResetWarning,0823.5,4.99,000.00,030.1,029.6,000.0,038.2,031.9,016.0,0000.0,0018.67,0004.18,0003.04
2024-06-03 02:37:00,SystemResetWarning,0823.5,4.99,000.00,030.2,029.7,000.0,038.2,032.0,015.9,0000.0,0017.60,0004.16,0003.02
2024-06-03 02:38:00,SystemResetWarning,0823.4,4.99,000.00,030.2,029.7,000.0,038.3,032.0,015.7,0000.0,0017.40,0004.16,0003.00
2024-06-03 02:39:00,SystemResetWarning,0823.4,5.00,000.00,030.2,029.8,000.0,038.3,032.0,015.4,0000.0,0017.52,0004.16,0003.00
2024-06-03 02:40:00,SystemResetWarning,0823.4,5.00,000.00,030.3,029.8,000.0,038.4,032.1,015.3,0000.0,0017.47,0004.16,0003.01
2024-06-03 02:41:00,SystemResetWarning,0823.4,5.00,000.00,030.3,029.2,000.0,038.4,031.7,015.2,0000.0,0018.18,0004.23,0003.00
2024-06-03 02:42:00,SystemResetWarning,0823.3,5.00,000.00,029.9,026.8,000.0,038.5,030.6,015.9,0000.0,0016.71,0004.22,0002.97
2024-06-03 02:43:00,SystemResetWarning,0823.3,5.01,000.00,029.6,026.4,000.0,038.5,030.3,016.3,0000.0,0014.48,0004.22,0002.95
2024-06-03 02:44:00,SystemResetWarning,0823.4,5.00,000.00,029.5,026.8,000.0,038.3,030.4,016.0,0000.0,0014.01,0004.23,0002.93
2024-06-03 02:45:00,SystemResetWarning,0823.4,5.00,000.00,029.5,027.2,000.0,038.2,030.7,016.0,0000.0,0013.96,0004.29,0002.91
2024-06-03 02:46:00,SystemResetWarning,0823.4,4.99,000.00,029.5,027.6,000.0,038.1,030.9,016.1,0000.0,0013.20,0004.29,0002.89
2024-06-03 02:47:00,SystemResetWarning,0823.4,5.00,000.00,029.5,027.9,000.0,038.1,031.1,015.9,0000.0,0012.30,0004.28,0002.89
2024-06-03 02:48:00,SystemResetWarning,0823.4,5.00,000.00,029.5,028.2,000.0,038.0,031.2,016.4,0000.0,0012.47,0004.25,0002.88
2024-06-03 02:49:00,SystemResetWarning,0823.4,4.99,000.00,029.6,028.5,000.0,038.0,031.3,015.9,0000.0,0013.20,0004.29,0002.92
2024-06-03 02:50:00,SystemResetWarning,0823.5,5.00,000.00,029.6,028.7,000.0,038.0,031.4,015.5,0000.0,0013.76,0004.26,0002.93
2024-06-03 02:51:00,SystemResetWarning,0823.5,5.01,000.00,029.7,028.8,000.0,038.0,031.4,015.5,0000.0,0014.45,0004.21,0002.93
2024-06-03 02:52:00,SystemResetWarning,0823.6,5.00,000.00,029.7,029.0,000.0,038.0,031.5,015.2,0000.0,0013.50,0004.20,0002.94
2024-06-03 02:53:00,SystemResetWarning,0823.6,4.99,000.00,029.8,029.1,000.0,038.0,031.6,015.3,0000.0,0013.83,0004.19,0002.94
2024-06-03 02:54:00,SystemResetWarning,0823.7,5.00,000.00,029.9,029.2,000.0,038.0,031.7,015.2,0000.0,0013.88,0004.20,0002.93
2024-06-03 02:55:00,SystemResetWarning,0823.7,5.01,000.00,029.9,029.3,000.0,038.1,031.7,014.8,0000.0,0013.52,0004.15,0002.92
2024-06-03 02:56:00,SystemResetWarning,0823.8,5.00,000.00,030.0,029.4,000.0,038.1,031.8,015.3,0000.0,0013.71,0004.12,0002.93
2024-06-03 02:57:00,SystemResetWarning,0823.8,5.00,000.00,030.0,029.5,000.0,038.1,031.9,015.9,0000.0,0013.58,0004.09,0002.90
2024-06-03 02:58:00,SystemResetWarning,0823.8,5.00,000.00,030.1,029.6,000.0,038.2,031.9,015.3,0000.0,0013.28,0004.09,0002.88
2024-06-03 02:59:00,SystemResetWarning,0823.8,5.01,000.00,030.1,029.6,000.0,038.2,032.0,015.4,0000.0,0012.96,0004.11,0002.88
